Regional Weather Roundup
Issued by NWS

Home | Current Version | Previous Version | Text Only | Print | Product List | Glossary On
Versions: 1 2 3 4 5 6 7 8 9 10 11 12 13 14 15 16 17 18 19 20 21 22 23 24 25 26 27 28 29 30 31 32 33 34 35 36 37 38 39 40 41 42 43 44 45 46 47 48 49 50
000
ASUS45 KCYS 300210
RWRWY

WYOMING REGIONAL WEATHER ROUNDUP
NATIONAL WEATHER SERVICE CHEYENNE WY
800 PM MDT FRI AUG 29 2014

NOTE:  "FAIR" INDICATES FEW OR NO CLOUDS BELOW 12,000 FEET
WITH NO SIGNIFICANT WEATHER AND/OR OBSTRUCTIONS TO VISIBILITY.

WYZ001-300300-
YELLOWSTONE NATIONAL PARK

CITY           SKY/WX    TMP DP  RH WIND       PRES   REMARKS
LK YELLOWSTONE   N/A     54  45  71 CALM      30.21S
W YELLOWSTONE  NOT AVBL

$$
WYZ002>013-054>058-071-098>099-300300-
NORTHERN WYOMING

CITY           SKY/WX    TMP DP  RH WIND       PRES   REMARKS
JACKSON        CLEAR     70  39  32 CALM      30.10F
CODY           PTCLDY    72  46  40 S3        29.98S
GREYBULL       CLEAR     77  47  34 S3        29.90F
WORLAND        CLEAR     72  42  34 SE8       29.92F
SHERIDAN       CLEAR     70  51  51 CALM      29.96F
BUFFALO        CLEAR     67  48  50 SE7       30.04S
GILLETTE       CLEAR     65  50  58 E6        30.01S
HULETT         FAIR      64  52  63 MISG      30.04
NEWCASTLE      FAIR      70  43  37 N3        30.02

$$
WYZ014>020-022>026-101>103-300300-
CENTRAL WYOMING

CITY           SKY/WX    TMP DP  RH WIND       PRES   REMARKS
BIG PINEY      PTCLDY    63  42  46 NW7       30.16S
PINEDALE       CLEAR     61  41  48 NW6       30.17S
DUBOIS         FAIR      64  34  32 W18       30.14S
LANDER         CLOUDY    73  46  38 SW9       30.00S
RIVERTON       PTCLDY    72  41  32 E5        30.01S
CASPER         CLEAR     69  43  38 E10       30.04S
DOUGLAS        PTCLDY    61  53  75 E9        30.06S

$$
WYZ021-027>030-104>119-300300-
SOUTHERN WYOMING

CITY           SKY/WX    TMP DP  RH WIND       PRES   REMARKS
EVANSTON       PTCLDY    67  40  37 W9        30.19S
KEMMERER       PTCLDY    63  37  39 W5        30.20S
FORT BRIDGER   FAIR      67  40  37 S14       30.22R
ROCK SPRINGS   PTCLDY    67  39  35 SW21      30.16R
DIXON          FAIR      65  48  54 CALM      30.19R
RAWLINS        CLEAR     64  38  38 CALM      30.14S
SARATOGA       MOCLDY    64  45  48 SW7       30.19R
LARAMIE        MOCLDY    58  49  72 E8        30.20R
CHEYENNE       MOCLDY    60  50  69 CALM      30.16S
TORRINGTON     CLEAR     65  51  60 NE7       30.02R
PINE BLUFFS    FAIR      61  46  59 CALM      30.12R

$$


USA.gov is the U.S. government's official web portal to all federal, state and local government web resources and services.